CZ-3C DEB, 39351

Orbit data source: Space-Track

CZ-3C DEB, 39351 is space debris in HEO originally from a launch on Sun, 31 Oct 2010 UTC launched from the Xichang Space Center, China (XSC). Debris objects in space refer to the collection of defunct objects orbiting the Earth. Examples of debris include non-operational satellites, rocket bodies, and fragments generated from explosions, collisions, or faulty payload assembly.

Loading next visibility...
Identifier
39351, 2010-057R
Orbit
HEO
Country
Flag of CNCN / PRC
Related business
Manufacturer
CALT
Mission
Spacecraft
Bus & Motor
Unknown
Mass
Unknown
Launch date (UTC)
2010-10-31 (15 years ago)
Launch vehicle
Unknown
Launch site
Xichang Space Center, China (XSC)
Object type
Payload
Rocket body
Debris
Shape & HBR
Unknown shape, 0.3 m
Radar Cross Section
Medium (>0.1 m² and <1 m²)

Expand to show TLE details & history
Last TLE update: 1 day ago

TLE from 1 day ago
0 CZ-3C DEB
1 39351U 10057R   25293.11244265 -.00000081  00000-0  85527-3 0  9990
2 39351  20.4072 189.3784 7078438 341.6993 257.4348  2.26497838 99572
Epoch: 2025-10-20T02:41Z
TLE epoch observation values (Epoch: 2025-10-20T02:41:55.044Z)
Latitude
-0.83414°
Longitude
-57.71775°
Altitude
29,855.418 km
Speed
2.393 km/s
True Right ascension
00h 46m 19s
True Declination
0° 49' 59"
Sunlit
Object was in daylight at epoch
Visualization orbit readout
Latitude
Unknown
Longitude
Unknown
Altitude
Unknown
Speed
Unknown
Apparent Right ascension
Unknown
Apparent Declination
Unknown
Sunlit
N/A
Visualization observer readout
Local Sidereal Time
02:42:06
Azimuth
Unknown
Elevation
Unknown
Doppler factor
Unknown
Orbital elements
Apogee altitude
35,457.673 km
Perigee altitude
778.601 km
Semi-major axis
24,496.274 km
Eccentricity
0.70784
Inclination
20.4072°
RAAN
189.3784°
Arg. of periapsis
341.6993°
True anomaly
200.63952°
Mean anomaly
257.4348°
Eccentric anomaly
227.52262°
Mean motion
0.5661 °/min
Orbital period
635.93 mins
BSTAR
0.00085527
Loading maneuver chart data...
Computing Atmospheric mass density...
Loading historical data...
Loading historical data...
Loading historical data...
Loading historical data...
Loading historical data...
Loading historical data...
Loading historical data...

Documentation

Showing up to 5 results
|